sat.trackr.live / text

‹ back to catalog

STARLINK-36328

NORAD 68096 · 2026-042AD

PAYLOAD ACTIVE UNKNOWN

§ Identity

Operator
Country
US
Launch date
2026-03-04
Launch site
AFETR
Launch vehicle
Mass (kg)
RCS (m²)

Purposes: comms

External: N2YO · Heavens-Above · Gunter

§ Orbital elements

Epoch: 2026-05-25T03:05:24.580608Z

Period
93.85 min
Inclination
53.1587°
Eccentricity
0.0001244
Mean motion
15.34315292 rev/d
Perigee alt
462.1 km
Apogee alt
463.8 km
Semi-major
6,841.1 km
B*
-9.6728e-4
RAAN
183.2882°
Arg perigee
74.0886°
Mean anomaly
286.0253°
Rev number
1,400

§ Raw data

STARLINK-363281 68096U 26042AD  26145.12875672 -.00032828  00000+0 -96728-3 0  99982 68096  53.1587 183.2882 0001244  74.0886 286.0253 15.34315292 14002

JSON: /api/v1/satellites/68096 · /tle

For live sub-satellite position, see the globe view (requires WebGL).

§ Visibility from observer

Set your observer location to see the next 7 days of passes ≥ 10°. The values pass through the URL so the page stays shareable.

No JS? Fill the form by hand. The geolocation button needs JavaScript.